Date String (YYYY-MM-DD hh:mm:ss) UTC,Instrument flags,absolute air pressure of the measurement (hPa),sample flow rate (lpm),inlet stack bypass flow (lpm),air temperature of the measurement (°C),ambient temperature measured by the external sensor (°C),aerosol sample conditioner tube jacket temperature (°C),OPC LED temperature (°C),internal box temperature (°C),relative humidity of the measurement (%),span deviation,mass concentration of particles derived from Lorenz-Mie calculation of OPC scattering (μg/m³),mass concentration of particles derived from Lorenz-Mie calculation of OPC scattering (μg/m³),mass concentration of particles derived from Lorenz-Mie calculation of OPC scattering (μg/m³)
DateTimeUTC,F1_M11,P_M11,Q1_M11,Q2_M11,T1_M11,T2_M11,T3_M11,T4_M11,T5_M11,U1_M11,ZSPAN_M11,X0_M11,X2_M11,X1_M11
2024-04-12 06:00:00,SystemResetWarning,0830.2,5.00,000.00,025.4,024.6,000.0,034.0,027.2,011.6,0001.0,0017.27,0005.71,0003.53
2024-04-12 06:01:00,SystemResetWarning,0830.2,4.99,000.00,025.4,024.6,000.0,034.0,027.2,011.7,0000.0,0016.54,0005.70,0003.52
2024-04-12 06:02:00,SystemResetWarning,0830.1,5.00,000.00,025.4,024.6,000.0,034.0,027.2,011.7,0000.0,0016.53,0005.70,0003.52
2024-04-12 06:03:00,SystemResetWarning,0830.1,4.99,000.00,025.4,024.6,000.0,034.0,027.2,011.8,0000.0,0017.54,0005.71,0003.51
2024-04-12 06:04:00,SystemResetWarning,0830.1,5.00,000.00,025.4,024.6,000.0,033.9,027.2,011.7,0000.0,0018.23,0005.71,0003.51
2024-04-12 06:05:00,SystemResetWarning,0830.1,5.00,000.00,025.4,024.6,000.0,033.9,027.2,011.6,0000.0,0018.42,0005.72,0003.50
2024-04-12 06:06:00,SystemResetWarning,0830.1,5.01,000.00,025.4,024.5,000.0,033.9,027.2,011.4,0000.0,0017.44,0005.74,0003.49
2024-04-12 06:07:00,SystemResetWarning,0830.0,5.00,000.00,025.3,024.5,000.0,033.9,027.2,011.4,0000.0,0017.63,0005.80,0003.49
2024-04-12 06:08:00,SystemResetWarning,0830.0,5.01,000.00,025.3,024.5,000.0,033.9,027.2,011.3,0000.0,0018.08,0005.81,0003.50
2024-04-12 06:09:00,SystemResetWarning,0830.1,5.00,000.00,025.3,024.5,000.0,033.9,027.2,011.3,0000.0,0018.48,0005.77,0003.49
2024-04-12 06:10:00,SystemResetWarning,0830.1,4.99,000.00,025.3,024.5,000.0,033.9,027.2,011.4,0000.0,0017.81,0005.72,0003.49
2024-04-12 06:11:00,SystemResetWarning,0830.0,4.99,000.00,025.3,024.5,000.0,033.9,027.2,011.4,0000.0,0017.73,0005.64,0003.47
2024-04-12 06:12:00,SystemResetWarning,0830.0,5.00,000.00,025.3,024.5,000.0,033.9,027.1,011.5,0000.0,0017.36,0005.59,0003.45
2024-04-12 06:13:00,SystemResetWarning,0830.0,5.02,000.00,025.3,024.5,000.0,033.9,027.1,011.6,0000.0,0016.87,0005.54,0003.44
2024-04-12 06:14:00,SystemResetWarning,0830.1,5.00,000.00,025.3,024.5,000.0,033.9,027.1,011.6,0000.0,0016.10,0005.52,0003.44
2024-04-12 06:15:00,SystemResetWarning,0830.0,4.99,000.00,025.3,024.5,000.0,033.9,027.1,011.7,0000.0,0015.61,0005.48,0003.43
2024-04-12 06:16:00,SystemResetWarning,0830.1,5.01,000.00,025.3,024.5,000.0,033.9,027.1,011.5,0000.0,0015.48,0005.48,0003.41
2024-04-12 06:17:00,SystemResetWarning,0830.1,5.01,000.00,025.3,024.5,000.0,033.8,027.1,011.4,0000.0,0015.10,0005.49,0003.41
2024-04-12 06:18:00,SystemResetWarning,0830.1,5.01,000.00,025.3,024.5,000.0,033.8,027.1,011.4,0000.0,0014.50,0005.43,0003.40
2024-04-12 06:19:00,SystemResetWarning,0830.1,5.00,000.00,025.3,024.5,000.0,033.8,027.1,011.4,0000.0,0014.05,0005.44,0003.39
2024-04-12 06:20:00,SystemResetWarning,0830.1,4.99,000.00,025.3,024.5,000.0,033.8,027.1,011.4,0000.0,0013.58,0005.43,0003.37
2024-04-12 06:21:00,SystemResetWarning,0830.1,5.00,000.00,025.2,024.5,000.0,033.8,027.1,011.4,0000.0,0014.06,0005.47,0003.36
2024-04-12 06:22:00,SystemResetWarning,0830.0,5.00,000.00,025.2,024.5,000.0,033.8,027.1,011.3,0000.0,0014.02,0005.48,0003.35
2024-04-12 06:23:00,SystemResetWarning,0830.0,5.01,000.00,025.2,024.4,000.0,033.8,027.1,011.3,0000.0,0014.20,0005.51,0003.35
2024-04-12 06:24:00,SystemResetWarning,0830.0,5.01,000.00,025.2,024.4,000.0,033.8,027.1,011.2,0000.0,0014.84,0005.55,0003.34
2024-04-12 06:25:00,SystemResetWarning,0830.0,5.00,000.00,025.2,024.4,000.0,033.8,027.1,011.2,0000.0,0015.36,0005.57,0003.32
2024-04-12 06:26:00,SystemResetWarning,0830.0,5.00,000.00,025.2,024.4,000.0,033.8,027.1,011.0,0000.0,0015.13,0005.60,0003.30
2024-04-12 06:27:00,SystemResetWarning,0830.0,4.99,000.00,025.2,024.4,000.0,033.8,027.1,010.9,0000.0,0014.80,0005.53,0003.28
2024-04-12 06:28:00,SystemResetWarning,0830.0,5.00,000.00,025.2,024.4,000.0,033.8,027.0,010.8,0000.0,0014.57,0005.44,0003.25
2024-04-12 06:29:00,SystemResetWarning,0830.0,5.00,000.00,025.2,024.4,000.0,033.8,027.1,011.0,0000.0,0014.11,0005.42,0003.23
2024-04-12 06:30:00,SystemResetWarning,0830.0,5.00,000.00,025.2,024.4,000.0,033.8,027.0,011.1,0000.0,0014.41,0005.41,0003.21
2024-04-12 06:31:00,SystemResetWarning,0830.0,5.00,000.00,025.2,024.4,000.0,033.7,027.0,011.1,0000.0,0014.30,0005.38,0003.18
2024-04-12 06:32:00,SystemResetWarning,0830.0,5.00,000.00,025.2,024.4,000.0,033.7,027.0,011.0,0000.0,0013.84,0005.33,0003.17
2024-04-12 06:33:00,SystemResetWarning,0830.0,5.01,000.00,025.2,024.4,000.0,033.7,027.0,010.9,0000.0,0014.05,0005.36,0003.16
2024-04-12 06:34:00,SystemResetWarning,0830.0,5.01,000.00,025.2,024.4,000.0,033.7,027.0,010.7,0000.0,0013.94,0005.31,0003.15
2024-04-12 06:35:00,SystemResetWarning,0830.0,4.99,000.00,025.2,024.4,000.0,033.7,027.0,010.6,0000.0,0013.40,0005.31,0003.14
2024-04-12 06:36:00,SystemResetWarning,0830.0,4.99,000.00,025.2,024.4,000.0,033.7,027.0,010.5,0000.0,0012.73,0005.33,0003.13
2024-04-12 06:37:00,SystemResetWarning,0830.0,4.99,000.00,025.1,024.4,000.0,033.7,027.0,010.6,0000.0,0012.77,0005.27,0003.11
2024-04-12 06:38:00,SystemResetWarning,0830.0,5.01,000.00,025.1,024.3,000.0,033.7,027.0,010.6,0000.0,0013.18,0005.36,0003.10
2024-04-12 06:39:00,SystemResetWarning,0830.0,5.02,000.00,025.1,024.3,000.0,033.7,027.0,010.5,0000.0,0013.14,0005.44,0003.10
2024-04-12 06:40:00,SystemResetWarning,0830.0,4.99,000.00,025.1,024.3,000.0,033.7,026.9,010.5,0000.0,0013.99,0005.48,0003.11
2024-04-12 06:41:00,SystemResetWarning,0830.0,4.99,000.00,025.1,024.3,000.0,033.7,027.0,010.5,0000.0,0013.69,0005.45,0003.10
2024-04-12 06:42:00,SystemResetWarning,0830.1,5.00,000.00,025.1,024.3,000.0,033.7,026.9,010.5,0000.0,0013.59,0005.45,0003.10
2024-04-12 06:43:00,SystemResetWarning,0830.0,5.00,000.00,025.1,024.3,000.0,033.7,026.9,010.5,0000.0,0013.87,0005.54,0003.09
2024-04-12 06:44:00,SystemResetWarning,0829.9,5.01,000.00,025.1,024.3,000.0,033.7,026.9,010.5,0000.0,0013.57,0005.48,0003.07
2024-04-12 06:45:00,SystemResetWarning,0830.0,5.00,000.00,025.1,024.3,000.0,033.6,026.9,010.4,0000.0,0013.73,0005.52,0003.05
2024-04-12 06:46:00,SystemResetWarning,0829.9,4.99,000.00,025.1,024.3,000.0,033.6,026.9,010.4,0000.0,0013.98,0005.48,0003.03
2024-04-12 06:47:00,SystemResetWarning,0829.9,5.00,000.00,025.1,024.3,000.0,033.6,026.9,010.3,0000.0,0014.12,0005.39,0003.00
2024-04-12 06:48:00,SystemResetWarning,0830.0,5.01,000.00,025.0,024.3,000.0,033.6,026.9,010.3,0000.0,0013.87,0005.37,0003.02
2024-04-12 06:49:00,SystemResetWarning,0830.0,4.99,000.00,025.0,024.3,000.0,033.6,026.9,010.5,0000.0,0013.36,0005.31,0003.03
2024-04-12 06:50:00,SystemResetWarning,0829.9,5.00,000.00,025.0,024.2,000.0,033.6,026.8,010.6,0000.0,0013.67,0005.25,0003.00
2024-04-12 06:51:00,SystemResetWarning,0829.9,5.01,000.00,025.0,024.2,000.0,033.6,026.8,010.5,0000.0,0013.40,0005.20,0002.97
2024-04-12 06:52:00,SystemResetWarning,0829.9,5.01,000.00,025.0,024.2,000.0,033.6,026.9,010.5,0000.0,0014.13,0005.26,0002.97
2024-04-12 06:53:00,SystemResetWarning,0829.8,4.99,000.00,025.0,024.2,000.0,033.6,026.8,010.5,0000.0,0014.22,0005.29,0002.97
2024-04-12 06:54:00,SystemResetWarning,0829.8,4.98,000.00,025.0,024.2,000.0,033.6,026.8,010.5,0000.0,0014.20,0005.24,0002.97
2024-04-12 06:55:00,SystemResetWarning,0829.8,5.00,000.00,025.0,024.2,000.0,033.6,026.8,010.5,0000.0,0014.66,0005.25,0002.96
2024-04-12 06:56:00,SystemResetWarning,0829.8,5.01,000.00,025.0,024.2,000.0,033.6,026.8,010.6,0000.0,0014.69,0005.22,0002.94
2024-04-12 06:57:00,SystemResetWarning,0829.9,5.01,000.00,025.0,024.2,000.0,033.6,026.8,010.8,0000.0,0014.51,0005.21,0002.94
2024-04-12 06:58:00,SystemResetWarning,0829.8,5.01,000.00,025.0,024.2,000.0,033.6,026.8,010.8,0000.0,0014.34,0005.19,0002.94
2024-04-12 06:59:00,SystemResetWarning,0829.9,5.00,000.00,025.0,024.2,000.0,033.5,026.8,010.6,0000.0,0014.34,0005.16,0002.92
